15 daagse weersverwachting London (GB)

  • Overzicht
  • Per uur
  • 15 dagen
  • Extra
  • Vergelijk
  • Kaarten
  • Dagkaart
  • Meer »
  • Info
  • Statistieken
  • Directe link
    Temp 6h Neerslag Wind  
 06:47     19:01    Daglengte: 12:14 Vandaag
07:00
11°
 
4
13:00
22°
 
5
19:00
21°
 
3
 06:48     18:59    Daglengte: 12:11 Morgen
01:00
17°
 
3
07:00
17°
0.3 mm
3
13:00
20°
3.6 mm
6
warningclass
19:00
18°
2.3 mm
4
 06:50     18:56    Daglengte: 12:06 Maandag 23 Sep
01:00
15°
 
3
07:00
14°
 
3
13:00
20°
 
6
19:00
16°
2.7 mm
4
Locatie info
Region: England
Latitude: 51.5064°N
Longitude: -0.1272°E
25 masl
Postcode: SW1A 2
Temp/Neerslag /Baro Onweer/Dauwpunt
    Temp Baro 1h Neerslag Dauwpunt Wind UV Bewolking  
 06:47     19:01    Daglengte: 12:14 Vandaag
03:00
13°
1017.2 hPa   6.3°
4
Windvlaag: 1.3 km/h
33%
04:00
12°
1016.5 hPa   6.1°
4
Windvlaag: 1.3 km/h
42%
05:00
12°
1016.1 hPa   5.9°
4
Windvlaag: 1.3 km/h
13%
06:00
12°
1015.7 hPa   5.9°
4
Windvlaag: 1.2 km/h
2%
07:00
11°
1015.4 hPa   6.1°
4
Windvlaag: 1.2 km/h
1%
08:00
12°
1014.9 hPa   6.2°
4
Windvlaag: 0.9 km/h
0%
09:00
14°
1014.7 hPa   6.4°
5
Windvlaag: 1.3 km/h
0%
10:00
16°
1014.3 hPa   6.6°
5
Windvlaag: 1.6 km/h
0%
11:00
18°
1013.6 hPa   7.0°
5
Windvlaag: 1.9 km/h
0%
12:00
20°
1012.9 hPa   7.4°
5
Windvlaag: 1.9 km/h
0%
13:00
22°
1012.3 hPa   7.8°
5
Windvlaag: 2.1 km/h
0%
14:00
23°
1011.6 hPa   8.9°
5
Windvlaag: 2.3 km/h
0%
15:00
24°
1010.7 hPa   9.9°
5
Windvlaag: 2.6 km/h
0%
16:00
24°
1010.1 hPa   10.7°
5
Windvlaag: 2.6 km/h
0%
17:00
23°
1009.7 hPa   10.9°
5
Windvlaag: 2.9 km/h
0%
18:00
22°
1009.4 hPa   11.0°
4
Windvlaag: 3 km/h
2%
19:00
21°
1009.3 hPa   11.1°
3
Windvlaag: 2.5 km/h
12%
20:00
19°
1009.0 hPa   11.2°
4
Windvlaag: 2.3 km/h
28%
21:00
18°
1008.6 hPa   11.5°
4
Windvlaag: 1.3 km/h
63%
22:00
18°
1008.2 hPa   11.7°
4
Windvlaag: 1.4 km/h
59%
23:00
18°
1007.8 hPa   11.7°
3
Windvlaag: 1.4 km/h
38%
 06:48     18:59    Daglengte: 12:11 Morgen
00:00
17°
1007.1 hPa
13%
11.7°
3
Windvlaag: 1.4 km/h
39%
01:00
17°
1006.6 hPa
12%
11.7°
3
Windvlaag: 1.8 km/h
23%
02:00
17°
1006.1 hPa   11.8°
3
Windvlaag: 1.4 km/h
50%
03:00
17°
1005.4 hPa
20%
12.1°
3
Windvlaag: 1.3 km/h
52%
04:00
17°
1004.9 hPa
17%
12.6°
3
Windvlaag: 1.6 km/h
51%
05:00
17°
1004.6 hPa
68%
13.4°
3
Windvlaag: 1.5 km/h
56%
06:00
17°
1004.3 hPa 0.3 mm
67%
13.9°
3
Windvlaag: 2 km/h
59%
07:00
17°
1004.2 hPa
25%
14.2°
3
Windvlaag: 1.9 km/h
55%
08:00
17°
1004.0 hPa 0.4 mm
66%
14.8°
3
Windvlaag: 2.9 km/h
60%
09:00
18°
1003.6 hPa 1.0 mm
16%
15.9°
3
Windvlaag: 3.2 km/h
55%
10:00
19°
1003.4 hPa 0.6 mm
17%
15.9°
4
Windvlaag: 3.8 km/h
48%
11:00
20°
1003.3 hPa 0.4 mm
20%
16.2°
4
Windvlaag: 4.5 km/h
69%
12:00
20°
1003.1 hPa
73%
16.5°
5
Windvlaag: 4.2 km/h
84%
13:00
20°
1002.8 hPa 1.2 mm
82%
16.8°
6
Windvlaag: 5.2 km/h
78% warningclass
14:00
20°
1002.7 hPa 1.4 mm
77%
17.1°
6
Windvlaag: 5.5 km/h
77%
15:00
19°
1002.7 hPa
77%
16.4°
5
Windvlaag: 5.1 km/h
66%
16:00
19°
1002.8 hPa 0.9 mm
82%
15.3°
4
Windvlaag: 3.8 km/h
90%
17:00
18°
1002.8 hPa
82%
14.7°
4
Windvlaag: 3.5 km/h
90%
18:00
18°
1002.9 hPa
82%
14.7°
4
Windvlaag: 3.6 km/h
66%
19:00
18°
1003.3 hPa
80%
14.9°
4
Windvlaag: 3.6 km/h
43%
20:00
17°
1003.7 hPa
80%
14.8°
4
Windvlaag: 3.6 km/h
83%
21:00
17°
1004.1 hPa
73%
14.8°
4
Windvlaag: 3.7 km/h
48%
22:00
16°
1004.8 hPa
33%
14.4°
3
Windvlaag: 4 km/h
50%
23:00
16°
1005.0 hPa
89%
14.0°
3
Windvlaag: 3.7 km/h
45%
 06:50     18:56    Daglengte: 12:06 Maandag 23 Sep
00:00
15°
1005.1 hPa
84%
13.8°
3
Windvlaag: 3.9 km/h
55%
01:00
15°
1005.4 hPa
32%
13.7°
3
Windvlaag: 3.3 km/h
50%
02:00
15°
1005.9 hPa
21%
13.5°
3
Windvlaag: 3.6 km/h
53%
03:00
14°
1006.1 hPa
21%
13.2°
3
Windvlaag: 3.6 km/h
61%
04:00
14°
1006.3 hPa
28%
12.9°
3
Windvlaag: 3.3 km/h
39%
05:00
14°
1006.6 hPa
29%
12.7°
3
Windvlaag: 3 km/h
81%
06:00
14°
1007.2 hPa
36%
12.7°
3
Windvlaag: 3 km/h
82%
07:00
14°
1008.0 hPa
84%
12.6°
3
Windvlaag: 2.6 km/h
88%
08:00
14°
1008.0 hPa
87%
12.3°
3
Windvlaag: 1.1 km/h
90%
09:00
15°
1008.5 hPa
85%
12.4°
4
Windvlaag: 1.2 km/h
92%
10:00
16°
1008.9 hPa
28%
11.9°
4
Windvlaag: 1.1 km/h
66%
11:00
17°
1009.0 hPa
22%
11.5°
4
Windvlaag: 1.1 km/h
44%
12:00
19°
1008.7 hPa
24%
9.9°
4
Windvlaag: 1.2 km/h
13%
13:00
20°
1008.7 hPa
23%
7.8°
6
Windvlaag: 1.4 km/h
67%
14:00
20°
1008.7 hPa
25%
9.8°
6
Windvlaag: 1.4 km/h
62%
15:00
20°
1008.6 hPa
21%
9.5°
6
Windvlaag: 1.5 km/h
79%
16:00
19°
1008.5 hPa
21%
10.6°
6
Windvlaag: 1.5 km/h
76%
17:00
19°
1008.4 hPa
21%
11.0°
5
Windvlaag: 1.7 km/h
85%
18:00
18°
1008.3 hPa
21%
11.7°
5
Windvlaag: 1.6 km/h
94%
19:00
16°
1008.2 hPa 2.7 mm
21%
12.9°
4
Windvlaag: 2.1 km/h
91%
20:00
16°
1008.1 hPa
21%
13.0°
5
Windvlaag: 15.5 km/h
90%
21:00
16°
1007.8 hPa
21%
13.2°
5
Windvlaag: 14.6 km/h
97%
22:00
16°
1007.4 hPa
23%
13.5°
5
Windvlaag: 12.1 km/h
97%
23:00
16°
1006.9 hPa
35%
13.9°
5
Windvlaag: 9.9 km/h
95%
 06:51     18:54    Daglengte: 12:03 Dinsdag 24 Sep
00:00
16°
1006.4 hPa
90%
14.2°
5
Windvlaag: 9.3 km/h
89%
01:00
16°
1005.7 hPa 2.8 mm
99%
14.5°
5
Windvlaag: 1.6 km/h
99%
Temp/Neerslag /Baro Onweer/Dauwpunt
    Temp Baro Neerslag Dauwpunt Wind Bewolking  
 06:47     19:01    Daglengte: 12:14 Vandaag
04:00
12°
1016.5 hPa   6.1°
4
42%
07:00
11°
1015.4 hPa   6.1°
4
1%
10:00
16°
1014.3 hPa   6.6°
5
0%
13:00
22°
1012.3 hPa   7.8°
5
0%
16:00
24°
1010.1 hPa   10.7°
5
0%
19:00
21°
1009.3 hPa   11.1°
3
12%
22:00
18°
1008.2 hPa   11.7°
4
59%
 06:48     18:59    Daglengte: 12:11 Morgen
01:00
17°
1006.6 hPa   11.7°
3
23%
04:00
17°
1004.9 hPa   12.6°
3
51%
07:00
17°
1004.2 hPa 0.3 mm 14.2°
3
55%
10:00
19°
1003.4 hPa 2.0 mm 15.9°
4
48%
13:00
20°
1002.8 hPa 1.6 mm 16.8°
6
78% warningclass
16:00
19°
1002.8 hPa 2.3 mm 15.3°
4
90%
19:00
18°
1003.3 hPa   14.9°
4
43%
22:00
16°
1004.8 hPa   14.4°
3
50%
 06:50     18:56    Daglengte: 12:06 Maandag 23 Sep
01:00
15°
1005.4 hPa   13.7°
3
50%
04:00
14°
1006.3 hPa   12.9°
3
39%
07:00
14°
1008.0 hPa   12.6°
3
88%
10:00
16°
1008.9 hPa   11.9°
4
66%
13:00
20°
1008.7 hPa   7.8°
6
67%
16:00
19°
1008.5 hPa   10.6°
6
76%
19:00
16°
1008.2 hPa 2.7 mm 12.9°
4
91%
22:00
16°
1007.4 hPa   13.5°
5
97%
 06:51     18:54    Daglengte: 12:03 Dinsdag 24 Sep
01:00
16°
1005.7 hPa 8.1 mm 14.5°
5
99%
04:00
16°
1003.7 hPa 12.2 mm 15.0°
4
92%
07:00
16°
1002.4 hPa 13.0 mm 15.2°
4
92%
10:00
17°
999.8 hPa 26.8 mm 15.3°
6
85%
13:00
18°
997.2 hPa 27.9 mm 15.2°
8
77%
16:00
18°
998.8 hPa 28.0 mm 13.6°
7
57%
19:00
17°
1000.3 hPa 28.0 mm 12.0°
6
37%
22:00
15°
1001.0 hPa 28.2 mm 11.9°
5
61%
 06:53     18:52    Daglengte: 11:59 Woensdag 25 Sep
01:00
14°
1001.6 hPa 28.5 mm 11.5°
5
85%
04:00
14°
1001.1 hPa 29.1 mm 12.1°
6
87%
07:00
14°
1000.8 hPa 30.1 mm 12.5°
6
88%
10:00
16°
1001.5 hPa 35.6 mm 13.0°
7
87%
13:00
19°
1002.2 hPa 37.3 mm 13.2°
7
86%
16:00
17°
1002.6 hPa 37.6 mm 13.3°
6
89%
19:00
16°
1003.0 hPa 40.5 mm 13.3°
5
92%
22:00
16°
1002.6 hPa 49.9 mm 14.2°
5
91%
 06:55     18:50    Daglengte: 11:55 Donderdag 26 Sep
01:00
16°
1002.1 hPa 53.0 mm 14.9°
6
90%
04:00
17°
1002.0 hPa 54.0 mm 15.2°
6
91%
07:00
17°
1002.1 hPa 55.9 mm 15.5°
6
92%
10:00
18°
1002.8 hPa 58.1 mm 15.5°
7
92%
13:00
19°
1003.5 hPa 59.3 mm 15.3°
8
92%
16:00
18°
1004.5 hPa 59.7 mm 14.4°
8
74%
19:00
17°
1005.6 hPa 60.0 mm 13.7°
7
56%
22:00
16°
1006.4 hPa 60.0 mm 13.5°
6
37%
 06:56     18:47    Daglengte: 11:51 Vrijdag 27 Sep
01:00
15°
1007.1 hPa 60.1 mm 13.3°
5
17%
04:00
15°
1006.9 hPa 60.1 mm 13.2°
4
53%
07:00
15°
1006.5 hPa 60.1 mm 13.1°
3
90%
10:00
16°
1006.6 hPa 60.2 mm 13.2°
5
63%
13:00
18°
1006.9 hPa 61.8 mm 13.0°
7
36%
16:00
17°
1006.5 hPa 62.1 mm 12.9°
6
64%
19:00
16°
1006.3 hPa 62.3 mm 12.7°
4
92%
22:00
15°
1005.8 hPa 62.3 mm 12.6°
4
55%
 06:58     18:45    Daglengte: 11:47 Zaterdag 28 Sep
01:00
14°
1005.1 hPa 124.6 mm 12.5°
4
19%
07:00
13°
1004.0 hPa 124.6 mm 11.6°
5
21%
13:00
17°
1004.0 hPa 124.6 mm 13.1°
7
75%
19:00
14°
1001.9 hPa 125.2 mm 12.3°
6
54%
 06:59     18:43    Daglengte: 11:44 Zondag 29 Sep
01:00
13°
1000.3 hPa 125.2 mm 11.9°
5
85%
07:00
12°
997.9 hPa 125.2 mm 11.1°
4
65%
13:00
17°
998.6 hPa 125.2 mm 9.5°
6
44%
19:00
14°
998.5 hPa 125.3 mm 11.7°
4
72%
 07:01     18:40    Daglengte: 11:39 Maandag 30 Sep
01:00
12°
1000.6 hPa 125.5 mm 10.6°
3
39%
07:00
11°
1002.5 hPa 125.5 mm 9.6°
2
42%
13:00
15°
1004.3 hPa 126.5 mm 10.4°
2
49%
19:00
14°
1008.4 hPa 1.1 mm 9.8°
2
58%
 07:03     18:38    Daglengte: 11:35 Dinsdag 01 Okt
01:00
11°
1010.1 hPa 0.9 mm 9.1°
2
47%
07:00
10°
1011.2 hPa 0.6 mm 8.8°
2
50%
13:00
15°
1013.2 hPa 1.2 mm 9.6°
3
49%
19:00
13°
1014.0 hPa 1.7 mm 8.6°
2
50%
 07:04     18:36    Daglengte: 11:32 Woensdag 02 Okt
01:00
10°
1015.8 hPa 0.3 mm 8.0°
2
44%
07:00
Voelt als: 8.0°
1016.8 hPa 0.6 mm 7.2°
2
39%
13:00
15°
1018.4 hPa 0.2 mm 8.1°
2
40%
19:00
12°
1017.8 hPa 0.5 mm 7.8°
1
41%
 07:06     18:34    Daglengte: 11:28 Donderdag 03 Okt
01:00
10°
1017.8 hPa 0.9 mm 7.6°
1
41%
07:00
1016.8 hPa 0.3 mm 7.5°
1
40%
13:00
14°
1016.8 hPa 1.4 mm 8.7°
3
46%
19:00
12°
1016.1 hPa 0.4 mm 8.1°
2
63%
 07:08     18:31    Daglengte: 11:23 Vrijdag 04 Okt
01:00
10°
1017.0 hPa 0.4 mm 7.8°
2
49%
07:00
1016.4 hPa 0.1 mm 7.6°
1
45%
13:00
15°
1016.6 hPa 0.4 mm 9.0°
1
51%
19:00
12°
1015.5 hPa 0.7 mm 8.1°
0
52%
 07:09     18:29    Daglengte: 11:20 Zaterdag 05 Okt
01:00
10°
1015.4 hPa 0.4 mm 7.5°
0
44%
07:00
Voelt als: 9.3°
1015.3 hPa 0.7 mm 7.3°
1
49%
13:00
14°
1015.9 hPa 0.8 mm 8.9°
0
51%
19:00
12°
1016.3 hPa 0.7 mm 7.6°
1
59%
 07:11     18:27    Daglengte: 11:16 Zondag 06 Okt
01:00
Voelt als: 8.5°
1017.9 hPa 0.3 mm 7.0°
2
42%
  CAPE Lifted Index Hail Supercell Tornado SRH 3km CL BTM PRES CL TOP PRES Swiss DWD icon SMHI TS
 06:47     19:01    Daglengte: 12:14 Vandaag
03:00 0 J/kg 10.5 K 0 % 0 % 0 % 0 m²/s² 0 0 15.51 3
04:00 0 J/kg 11.3 K 0 % 0 % 0 % 0 m²/s² 0 0 16.31 0
05:00 0 J/kg 11.4 K 0 % 0 % 0 % 0 m²/s² 0 0 16.53 0
06:00 0 J/kg 10.9 K 0 % 0 % 0 % 0 m²/s² 0 0 15.88 0
07:00 0 J/kg 10.6 K 0 % 0 % 0 % 0 m²/s² 0 0 15.97 0
08:00 0 J/kg 9.9 K 0 % 0 % 0 % 0 m²/s² 0 0 15.57 0
09:00 0 J/kg 8.3 K 0 % 0 % 0 % 0 m²/s² 0 0 14.12 0
10:00 0 J/kg 6.1 K 0 % 0 % 0 % 0 m²/s² 0 0 11.92 0
11:00 0 J/kg 3.7 K 0 % 0 % 0 % 0 m²/s² 0 0 9.07 0
12:00 0 J/kg 1.9 K 0 % 0 % 0 % 0 m²/s² 0 0 7.12 0
13:00 0 J/kg 0.6 K 0 % 0 % 0 % 0 m²/s² 0 0 5.07 0
14:00 0 J/kg 0.8 K 0 % 0 % 0 % 0 m²/s² 0 0 4.16 0
15:00 0 J/kg 0.5 K 0 % 0 % 0 % 0 m²/s² 0 0 3.86 0
16:00 0 J/kg 0.6 K 0 % 0 % 0 % 0 m²/s² 0 0 4.74 0
17:00 0 J/kg 0.2 K 0 % 0 % 0 % 0 m²/s² 0 0 4.25 0
18:00 0 J/kg -0.7 K 0 % 0 % 0 % 0 m²/s² 0 0 3.14 0
19:00 0 J/kg -1.0 K 0 % 0 % 0 % 0 m²/s² 0 0 2.27 0
20:00 0 J/kg -1.4 K 0 % 0 % 0 % 0 m²/s² 0 0 1.21 2
21:00 0 J/kg -1.3 K 0 % 0 % 0 % 0 m²/s² 0 0 1.01 3
22:00 0 J/kg -1.1 K 0 % 0 % 0 % 0 m²/s² 0 0 0.61 3
23:00 0 J/kg -0.9 K 0 % 0 % 0 % 0 m²/s² 0 0 0.36 3
 06:48     18:59    Daglengte: 12:11 Morgen
00:00 0 J/kg -0.7 K 0 % 0 % 0 % 0 m²/s² 0 0 0.41 1
01:00 0 J/kg -0.4 K 0 % 0 % 0 % 0 m²/s² 0 0 1.1 1
02:00 0 J/kg -0.4 K 0 % 0 % 0 % 0 m²/s² 0 0 1.25 2
03:00 0 J/kg -0.6 K 0 % 0 % 0 % 0 m²/s² 0 0 -0.24 3
04:00 0 J/kg -1.3 K 0 % 0 % 0 % 0 m²/s² 0 0 -1.21 2
05:00 0 J/kg -1.4 K 0 % 0 % 0 % 0 m²/s² 0 0 -1.04 80
06:00 14 J/kg -0.9 K 0 % 0 % 0 % 0 m²/s² 0 0 -0.87 2
07:00 0 J/kg -1.4 K 0 % 0 % 0 % 0 m²/s² 0 0 -1.01 2
08:00 0 J/kg -0.9 K 0 % 0 % 0 % 0 m²/s² 0 0 -0.09 3
09:00 0 J/kg -0.3 K 0 % 0 % 0 % 0 m²/s² 0 0 0.06 2
10:00 0 J/kg 0.7 K 0 % 0 % 0 % 0 m²/s² 0 0 0.91 2
11:00 45 J/kg 0.3 K 0 % 0 % 0 % 0 m²/s² 0 0 1.89 3
12:00 35 J/kg 0.6 K 0 % 0 % 0 % 0 m²/s² 0 0 0.6 3
13:00 26 J/kg 1.8 K 0 % 0 % 0 % 0 m²/s² 0 0 3.84 95
14:00 10 J/kg 3.0 K 0 % 0 % 0 % 0 m²/s² 0 0 10.02 80
15:00 57 J/kg 2.5 K 0 % 0 % 0 % 0 m²/s² 0 0 11.59 3
16:00 15 J/kg 3.7 K 0 % 0 % 0 % 0 m²/s² 0 0 11.68 80
17:00 12 J/kg 3.0 K 0 % 0 % 0 % 0 m²/s² 0 0 10.14 80
18:00 67 J/kg 1.5 K 0 % 0 % 0 % 0 m²/s² 0 0 7.44 80
19:00 83 J/kg 0.9 K 0 % 0 % 0 % 0 m²/s² 0 0 3.81 3
20:00 22 J/kg 0.6 K 0 % 0 % 0 % 0 m²/s² 0 0 3.27 3
21:00 92 J/kg -1.1 K 0 % 0 % 0 % 0 m²/s² 0 0 1.57 3
22:00 285 J/kg -1.6 K 0 % 0 % 0 % 0 m²/s² 0 0 0.02 3
23:00 120 J/kg -0.4 K 0 % 0 % 0 % 0 m²/s² 0 0 0.86 3
 06:50     18:56    Daglengte: 12:06 Maandag 23 Sep
00:00 241 J/kg -0.6 K 0 % 0 % 0 % 0 m²/s² 0 0 0.84 3
01:00 59 J/kg 0.2 K 0 % 0 % 0 % 0 m²/s² 0 0 0.53 3
02:00 6 J/kg 1.6 K 0 % 0 % 0 % 0 m²/s² 0 0 3.31 3
03:00 0 J/kg 1.8 K 0 % 0 % 0 % 0 m²/s² 0 0 3.45 3
04:00 0 J/kg 2.5 K 0 % 0 % 0 % 0 m²/s² 0 0 5.38 3
05:00 0 J/kg 3.5 K 0 % 0 % 0 % 0 m²/s² 0 0 7.64 3
06:00 0 J/kg 2.9 K 0 % 0 % 0 % 0 m²/s² 0 0 7.88 3
07:00 0 J/kg 2.2 K 0 % 0 % 0 % 0 m²/s² 0 0 6.46 3
08:00 10 J/kg 1.9 K 0 % 0 % 0 % 0 m²/s² 0 0 4.6 3
09:00 25 J/kg 1.5 K 0 % 0 % 0 % 0 m²/s² 0 0 3.03 3
10:00 53 J/kg 2.3 K 0 % 0 % 0 % 0 m²/s² 0 0 6.14 3
11:00 96 J/kg 2.8 K 0 % 0 % 0 % 0 m²/s² 0 0 6.94 2
12:00 124 J/kg 3.1 K 0 % 0 % 0 % 0 m²/s² 0 0 7.03 2
13:00 49 J/kg 5.2 K 0 % 0 % 0 % 0 m²/s² 0 0 7.48 2
14:00 92 J/kg 4.2 K 0 % 0 % 0 % 0 m²/s² 0 0 5.46 1
15:00 79 J/kg 4.3 K 0 % 0 % 0 % 0 m²/s² 0 0 4.78 2
16:00 102 J/kg 3.5 K 0 % 0 % 0 % 0 m²/s² 0 0 3.62 0
17:00 10 J/kg 5.1 K 0 % 0 % 0 % 0 m²/s² 0 0 5.19 1
18:00 0 J/kg 4.3 K 0 % 0 % 0 % 0 m²/s² 0 0 4.3 3
19:00 4 J/kg 3.1 K 0 % 0 % 0 % 0 m²/s² 0 0 3.19 2
20:00 5 J/kg 2.2 K 0 % 0 % 0 % 0 m²/s² 0 0 2.2 2
21:00 0 J/kg 1.1 K 0 % 0 % 0 % 0 m²/s² 0 0 1.58 3
22:00 0 J/kg -0.1 K 0 % 0 % 0 % 0 m²/s² 0 0 1.79 3
23:00 100 J/kg -1.0 K 0 % 0 % 0 % 0 m²/s² 0 0 0.68 2
 06:51     18:54    Daglengte: 12:03 Dinsdag 24 Sep
00:00 308 J/kg -1.6 K 0 % 0 % 0 % 0 m²/s² 0 0 -0.19 3
01:00 436 J/kg -2.1 K 0 % 0 % 0 % 0 m²/s² 0 0 -0.96 80
Temp Baro Wind Neerslag
  EWN Forecast EWN WRFDA DWD ICON FMI HIRLAM MET Norway GFS
 06:47     19:01    Daglengte: 12:14 Vandaag
04:00 12.4° 1016.5 hPa 4.1 m/s 0.0 mm 14.1° 1015.2 hPa 5.1 m/s 0.0 mm 12.2° 1016.5 hPa 2.2 m/s -2.0 mm 12.2° 1017.1 hPa 5.1 m/s 0.0 mm 12.2° 1016.6 hPa 3.8 m/s 0.0 mm 14.9° 1016.3 hPa 4.2 m/s
07:00 11.4° 1015.4 hPa 3.8 m/s 0.0 mm 12.8° 1013.8 hPa 5.0 m/s 0.0 mm 11.4° 1015.2 hPa 2.1 m/s 0.0 mm 10.4° 1016.3 hPa 4.6 m/s 0.0 mm 11.4° 1015.6 hPa 3.6 m/s 0.0 mm 13.5° 1014.7 hPa 4.3 m/s
10:00 16.2° 1014.3 hPa 4.8 m/s 0.0 mm 16.3° 1012.7 hPa 5.3 m/s 0.0 mm 16.2° 1014.3 hPa 3.4 m/s 0.0 mm 14.7° 1015.3 hPa 5.3 m/s 0.0 mm 17.8° 1014.4 hPa 5.0 m/s 0.0 mm 16.2° 1013.8 hPa 4.0 m/s
13:00 21.9° 1012.3 hPa 4.8 m/s 0.0 mm 22.3° 1011.9 hPa 5.3 m/s 0.0 mm 21.5° 1012.4 hPa 3.7 m/s 0.0 mm 21.7° 1013.1 hPa 5.9 m/s 0.0 mm 22.7° 1012.3 hPa 4.8 m/s 0.0 mm 21.6° 1012.2 hPa 3.9 m/s
16:00 23.9° 1010.1 hPa 5.1 m/s 0.0 mm 24.6° 1009.6 hPa 6.1 m/s 0.0 mm 23.1° 1009.7 hPa 3.8 m/s 0.0 mm 23.8° 1011.3 hPa 6.5 m/s 0.0 mm 23.9° 1010.2 hPa 5.0 m/s 0.0 mm 23.3° 1009.7 hPa 4.1 m/s
19:00 20.6° 1009.3 hPa 3.4 m/s 0.0 mm 23.3° 1008.3 hPa 4.6 m/s 0.0 mm 20.1° 1009.1 hPa 2.6 m/s 0.0 mm 20.7° 1011.1 hPa 3.5 m/s 0.0 mm 20.1° 1009.2 hPa 3.1 m/s 0.0 mm 21.1° 1008.2 hPa 3.4 m/s
22:00 17.8° 1008.2 hPa 3.5 m/s 0.0 mm 21.0° 1007.6 hPa 3.7 m/s 0.0 mm 17.8° 1008.4 hPa 1.9 m/s 0.0 mm 16.6° 1010.0 hPa 4.5 m/s 0.0 mm 18.2° 1008.0 hPa 3.6 m/s 0.0 mm 20.2° 1007.5 hPa 3.6 m/s
 06:48     18:59    Daglengte: 12:11 Morgen
01:00 17.5° 1006.6 hPa 3.0 m/s 0.0 mm 20.5° 1005.5 hPa 4.2 m/s 0.1 mm 17.5° 1007.0 hPa 1.3 m/s 0.0 mm 14.5° 1008.3 hPa 2.9 m/s 0.0 mm 18.5° 1006.1 hPa 3.4 m/s 0.0 mm 19.3° 1006.0 hPa 2.9 m/s
04:00 17.0° 1004.9 hPa 2.7 m/s 0.0 mm 19.4° 1003.8 hPa 5.2 m/s 0.1 mm 17.0° 1005.9 hPa 1.2 m/s 0.0 mm 14.0° 1006.6 hPa 3.2 m/s 0.0 mm 17.9° 1004.4 hPa 2.1 m/s 0.0 mm 18.9° 1004.2 hPa 3.5 m/s
07:00 16.7° 1004.2 hPa 2.9 m/s 0.3 mm 18.8° 1002.7 hPa 5.4 m/s 0.6 mm 16.6° 1005.3 hPa 0.8 m/s 0.3 mm 14.1° 1005.6 hPa 3.2 m/s 0.0 mm 16.9° 1003.9 hPa 2.5 m/s 0.9 mm 18.4° 1003.1 hPa 2.9 m/s
10:00 19.0° 1003.4 hPa 3.6 m/s 2.0 mm 20.9° 1001.0 hPa 5.8 m/s 1.6 mm 20.4° 1004.5 hPa 1.9 m/s 0.0 mm 18.5° 1005.1 hPa 3.4 m/s 0.0 mm 18.9° 1003.2 hPa 3.6 m/s 2.9 mm 20.4° 1002.9 hPa 5.4 m/s
13:00 20.4° 1002.8 hPa 5.7 m/s 1.6 mm 18.3° 1001.4 hPa 6.7 m/s 4.7 mm 21.4° 1003.2 hPa 2.6 m/s 1.3 mm 20.8° 1003.6 hPa 6.2 m/s 0.0 mm 20.4° 1002.1 hPa 5.9 m/s 0.9 mm 16.9° 1004.1 hPa 3.2 m/s
16:00 18.7° 1002.8 hPa 4.4 m/s 2.3 mm 20.1° 1001.7 hPa 7.2 m/s 9.4 mm 21.4° 1001.5 hPa 3.4 m/s 1.1 mm 19.1° 1002.7 hPa 5.6 m/s 0.0 mm 17.2° 1003.2 hPa 4.1 m/s 2.8 mm 19.0° 1004.1 hPa 5.9 m/s
19:00 17.5° 1003.3 hPa 3.9 m/s 0.0 mm 18.7° 1001.2 hPa 6.9 m/s 9.4 mm 18.2° 1002.3 hPa 3.6 m/s 2.6 mm 18.3° 1002.5 hPa 4.0 m/s 0.0 mm 16.3° 1004.4 hPa 3.3 m/s 0.0 mm 17.8° 1004.0 hPa 5.2 m/s
22:00 15.9° 1004.8 hPa 3.4 m/s 0.0 mm 16.8° 1002.1 hPa 6.8 m/s 9.5 mm 16.2° 1004.2 hPa 3.0 m/s 0.2 mm 14.4° 1005.2 hPa 3.1 m/s 0.0 mm 16.3° 1005.5 hPa 4.7 m/s
 06:50     18:56    Daglengte: 12:06 Maandag 23 Sep
01:00 14.9° 1005.4 hPa 3.1 m/s 0.0 mm 15.4° 1003.2 hPa 6.6 m/s 9.7 mm 15.2° 1004.6 hPa 1.9 m/s 0.0 mm 13.5° 1006.1 hPa 2.9 m/s 0.0 mm 14.5° 1006.6 hPa 5.5 m/s
04:00 14.1° 1006.3 hPa 2.8 m/s 0.0 mm 14.3° 1005.5 hPa 6.9 m/s 10.1 mm 14.5° 1005.6 hPa 1.3 m/s 0.0 mm 12.9° 1006.5 hPa 2.3 m/s 0.0 mm 13.8° 1008.2 hPa 5.2 m/s
07:00 13.8° 1008.0 hPa 3.2 m/s 0.0 mm 13.8° 1006.6 hPa 4.1 m/s 10.3 mm 14.1° 1006.7 hPa 1.4 m/s 0.0 mm 13.0° 1008.2 hPa 3.0 m/s 0.0 mm 13.6° 1009.2 hPa 4.3 m/s
10:00 16.1° 1008.9 hPa 4.4 m/s 0.0 mm 16.0° 1007.2 hPa 3.4 m/s 10.3 mm 16.3° 1007.9 hPa 2.0 m/s 0.1 mm 16.1° 1010.0 hPa 5.8 m/s 0.0 mm 16.5° 1010.1 hPa 4.9 m/s
13:00 20.1° 1008.7 hPa 5.7 m/s 0.0 mm 19.3° 1006.8 hPa 6.0 m/s 10.3 mm 20.3° 1007.8 hPa 3.0 m/s 0.0 mm 20.2° 1009.8 hPa 6.3 m/s 0.0 mm 18.8° 1009.9 hPa 6.6 m/s
16:00 19.3° 1008.5 hPa 6.1 m/s 0.0 mm 18.6° 1005.8 hPa 7.3 m/s 10.3 mm 21.3° 1007.5 hPa 3.0 m/s 0.0 mm 19.0° 1009.9 hPa 6.5 m/s 0.0 mm 17.5° 1008.1 hPa 5.9 m/s
19:00 16.5° 1008.2 hPa 4.5 m/s 2.7 mm 16.5° 1004.3 hPa 6.9 m/s 15.2 mm 17.8° 1007.8 hPa 3.1 m/s 0.0 mm 16.0° 1009.3 hPa 4.4 m/s 1.3 mm 16.2° 1006.5 hPa 6.5 m/s
22:00 15.8° 1007.4 hPa 4.6 m/s 0.0 mm 16.4° 1003.3 hPa 5.7 m/s 21.2 mm 15.2° 1008.0 hPa 1.8 m/s 0.0 mm 15.9° 1007.8 hPa 5.0 m/s 16.1° 1005.8 hPa 6.7 m/s
 06:51     18:54    Daglengte: 12:03 Dinsdag 24 Sep
01:00 15.8° 1005.7 hPa 5.0 m/s 8.1 mm 17.6° 1002.7 hPa 5.3 m/s 24.0 mm 14.9° 1005.7 hPa 2.4 m/s 0.2 mm 15.8° 1006.3 hPa 5.6 m/s 17.4° 1004.4 hPa 5.5 m/s
04:00 16.2° 1003.7 hPa 4.4 m/s 12.2 mm 16.1° 1003.8 hPa 4.4 m/s 17.3° 1003.5 hPa 4.8 m/s 12.2 mm
07:00 16.3° 1002.4 hPa 3.9 m/s 13.0 mm 16.2° 1002.5 hPa 3.8 m/s 16.9° 1001.4 hPa 4.4 m/s 13.0 mm
10:00 17.2° 999.8 hPa 6.1 m/s 26.8 mm 17.2° 999.7 hPa 6.1 m/s 17.1° 1000.4 hPa 6.0 m/s 26.8 mm
13:00 18.5° 997.2 hPa 8.3 m/s 27.9 mm 18.3° 996.9 hPa 8.4 m/s 20.1° 1000.4 hPa 6.9 m/s 27.9 mm
16:00 17.5° 998.8 hPa 7.0 m/s 28.0 mm 17.4° 998.6 hPa 6.9 m/s 19.2° 1000.2 hPa 7.6 m/s 28.0 mm
19:00 16.5° 1000.3 hPa 5.6 m/s 28.0 mm 16.5° 1000.4 hPa 5.4 m/s 16.7° 999.7 hPa 7.7 m/s 28.0 mm
22:00 15.4° 1001.0 hPa 5.5 m/s 28.2 mm 15.2° 1001.1 hPa 5.3 m/s 16.6° 999.4 hPa 7.2 m/s 28.2 mm
 06:53     18:52    Daglengte: 11:59 Woensdag 25 Sep
01:00 14.2° 1001.6 hPa 5.4 m/s 28.5 mm 14.0° 1001.9 hPa 5.2 m/s 15.9° 997.7 hPa 7.5 m/s 28.5 mm
04:00 14.2° 1001.1 hPa 6.0 m/s 29.1 mm 14.2° 1001.5 hPa 5.8 m/s 14.8° 997.1 hPa 8.3 m/s 29.1 mm
07:00 14.4° 1000.8 hPa 6.4 m/s 30.1 mm 14.4° 1001.0 hPa 6.4 m/s 14.9° 998.1 hPa 6.7 m/s 30.1 mm
10:00 16.3° 1001.5 hPa 6.9 m/s 35.6 mm 16.5° 1001.6 hPa 7.0 m/s 14.5° 999.9 hPa 6.5 m/s 35.6 mm
13:00 18.5° 1002.2 hPa 7.4 m/s 37.3 mm 18.6° 1002.3 hPa 7.5 m/s 17.6° 1001.2 hPa 6.8 m/s 37.3 mm
16:00 17.2° 1002.6 hPa 6.1 m/s 37.6 mm 17.1° 1002.8 hPa 6.0 m/s 18.0° 1001.2 hPa 6.9 m/s 37.6 mm
19:00 15.6° 1003.0 hPa 4.5 m/s 40.5 mm 15.7° 1003.2 hPa 4.6 m/s 14.8° 1000.6 hPa 3.8 m/s 40.5 mm
22:00 16.0° 1002.6 hPa 5.2 m/s 49.9 mm 16.0° 1002.8 hPa 5.3 m/s 15.8° 1000.0 hPa 3.7 m/s 49.9 mm
 06:55     18:50    Daglengte: 11:55 Donderdag 26 Sep
01:00 16.3° 1002.1 hPa 6.0 m/s 53.0 mm 16.3° 1002.4 hPa 6.1 m/s 16.7° 998.3 hPa 5.4 m/s 53.0 mm
04:00 16.5° 1002.0 hPa 6.1 m/s 54.0 mm 16.6° 1002.5 hPa 6.2 m/s 16.5° 997.0 hPa 6.1 m/s 54.0 mm
07:00 16.8° 1002.1 hPa 6.2 m/s 55.9 mm 16.8° 1002.6 hPa 6.2 m/s 17.4° 996.5 hPa 6.4 m/s 55.9 mm
10:00 17.7° 1002.8 hPa 7.2 m/s 58.1 mm 17.6° 1003.3 hPa 7.2 m/s 18.0° 997.3 hPa 6.1 m/s 58.1 mm
13:00 18.7° 1003.5 hPa 8.3 m/s 59.3 mm 18.5° 1004.0 hPa 8.3 m/s 20.5° 997.8 hPa 8.3 m/s 59.3 mm
16:00 17.8° 1004.5 hPa 7.8 m/s 59.7 mm 17.8° 1005.1 hPa 7.8 m/s 18.2° 998.0 hPa 7.9 m/s 59.7 mm
19:00 17.0° 1005.6 hPa 7.3 m/s 60.0 mm 17.1° 1006.2 hPa 7.3 m/s 16.1° 999.1 hPa 7.2 m/s 60.0 mm
22:00 15.9° 1006.4 hPa 5.9 m/s 60.0 mm 16.0° 1007.0 hPa 5.8 m/s 15.0° 999.5 hPa 6.9 m/s 60.0 mm
 06:56     18:47    Daglengte: 11:51 Vrijdag 27 Sep
01:00 14.8° 1007.1 hPa 4.6 m/s 60.1 mm 14.8° 1007.8 hPa 4.4 m/s 14.7° 999.3 hPa 7.4 m/s 60.1 mm
04:00 14.7° 1006.9 hPa 4.0 m/s 60.1 mm 14.8° 1007.5 hPa 3.8 m/s 14.0° 999.2 hPa 6.8 m/s 60.1 mm
07:00 14.8° 1006.5 hPa 3.5 m/s 60.1 mm 14.8° 1007.3 hPa 3.1 m/s 14.4° 998.0 hPa 7.4 m/s 60.1 mm
10:00 16.3° 1006.6 hPa 5.1 m/s 60.2 mm 16.2° 1007.4 hPa 4.8 m/s 16.7° 998.0 hPa 8.8 m/s 60.2 mm
13:00 17.6° 1006.9 hPa 6.7 m/s 61.8 mm 17.7° 1007.5 hPa 6.5 m/s 16.1° 999.7 hPa 8.6 m/s 61.8 mm
16:00 16.9° 1006.5 hPa 5.6 m/s 62.1 mm 16.8° 1007.0 hPa 5.3 m/s 18.2° 1001.0 hPa 8.4 m/s 62.1 mm
19:00 15.9° 1006.3 hPa 4.5 m/s 62.3 mm 15.9° 1006.6 hPa 4.2 m/s 16.4° 1002.9 hPa 7.3 m/s 62.3 mm
22:00 15.0° 1005.8 hPa 4.2 m/s 62.3 mm 14.9° 1005.9 hPa 4.0 m/s 15.0° 1005.2 hPa 6.6 m/s 62.3 mm
 06:58     18:45    Daglengte: 11:47 Zaterdag 28 Sep
01:00 14.0° 1005.1 hPa 3.9 m/s 62.3 mm 14.0° 1005.1 hPa 3.8 m/s 14.0° 1005.5 hPa 5.3 m/s 62.3 mm
07:00 13.0° 1004.0 hPa 4.5 m/s 62.3 mm 13.0° 1003.7 hPa 4.6 m/s 12.9° 1007.2 hPa 3.7 m/s 62.3 mm
13:00 17.1° 1004.0 hPa 7.4 m/s 62.3 mm 17.0° 1003.5 hPa 7.6 m/s 18.4° 1008.9 hPa 4.7 m/s 62.3 mm
19:00 14.4° 1001.9 hPa 6.5 m/s 62.6 mm 14.2° 1001.3 hPa 6.6 m/s 16.5° 1008.0 hPa 5.0 m/s 62.6 mm
 06:59     18:43    Daglengte: 11:44 Zondag 29 Sep
01:00 13.4° 1000.3 hPa 4.9 m/s 62.6 mm 13.3° 999.6 hPa 5.0 m/s 14.2° 1007.7 hPa 3.9 m/s 62.6 mm
07:00 12.4° 997.9 hPa 3.6 m/s 62.6 mm 12.3° 997.2 hPa 3.7 m/s 13.3° 1005.9 hPa 2.1 m/s 62.6 mm
13:00 17.4° 998.6 hPa 6.4 m/s 62.6 mm 17.3° 997.9 hPa 6.7 m/s 18.3° 1006.2 hPa 3.2 m/s 62.6 mm
19:00 14.2° 998.5 hPa 3.8 m/s 62.7 mm 13.9° 997.8 hPa 3.8 m/s 17.4° 1006.5 hPa 3.4 m/s 62.7 mm
 07:01     18:40    Daglengte: 11:39 Maandag 30 Sep
01:00 11.7° 1000.6 hPa 3.5 m/s 62.7 mm 11.5° 999.8 hPa 3.6 m/s 13.8° 1009.0 hPa 2.0 m/s 62.7 mm
07:00 10.5° 1002.5 hPa 2.5 m/s 62.8 mm 10.3° 1001.7 hPa 2.6 m/s 13.2° 1011.0 hPa 0.9 m/s 62.8 mm
13:00 15.4° 1004.3 hPa 2.0 m/s 63.4 mm 15.3° 1003.7 hPa 1.8 m/s 16.7° 1011.4 hPa 3.9 m/s 63.4 mm
19:00 13.7° 1008.4 hPa 2.3 m/s 1.1 mm
 07:03     18:38    Daglengte: 11:35 Dinsdag 01 Okt
01:00 11.2° 1010.1 hPa 2.0 m/s 0.9 mm
07:00 10.4° 1011.2 hPa 2.1 m/s 0.6 mm
13:00 15.0° 1013.2 hPa 2.5 m/s 1.2 mm
19:00 12.9° 1014.0 hPa 1.9 m/s 1.7 mm
 07:04     18:36    Daglengte: 11:32 Woensdag 02 Okt
01:00 10.2° 1015.8 hPa 2.2 m/s 0.3 mm
07:00 8.7° 1016.8 hPa 1.7 m/s 0.6 mm
13:00 14.5° 1018.4 hPa 2.2 m/s 0.2 mm
19:00 11.9° 1017.8 hPa 0.6 m/s 0.5 mm
 07:06     18:34    Daglengte: 11:28 Donderdag 03 Okt
01:00 10.0° 1017.8 hPa 1.1 m/s 0.9 mm
07:00 9.1° 1016.8 hPa 0.9 m/s 0.3 mm
13:00 14.4° 1016.8 hPa 2.5 m/s 1.4 mm
19:00 12.2° 1016.1 hPa 2.0 m/s 0.4 mm
 07:08     18:31    Daglengte: 11:23 Vrijdag 04 Okt
01:00 10.1° 1017.0 hPa 1.6 m/s 0.4 mm
07:00 9.4° 1016.4 hPa 0.7 m/s 0.1 mm
13:00 14.6° 1016.6 hPa 0.8 m/s 0.4 mm
19:00 12.0° 1015.5 hPa 0.4 m/s 0.7 mm
 07:09     18:29    Daglengte: 11:20 Zaterdag 05 Okt
01:00 10.2° 1015.4 hPa 0.4 m/s 0.4 mm
07:00 9.3° 1015.3 hPa 0.7 m/s 0.7 mm
13:00 14.4° 1015.9 hPa 0.2 m/s 0.8 mm
19:00 11.6° 1016.3 hPa 1.4 m/s 0.7 mm
 07:11     18:27    Daglengte: 11:16 Zondag 06 Okt
01:00 9.4° 1017.9 hPa 1.9 m/s 0.3 mm
FMI Hirlam - 7.5 km EWN WRFDA - 12 km DWD ICON - 7 km GFS - 25 km Basiskaart






























































Updatetijd (Europe/Amsterdam) Resolutie Lengte Stap
FMI Hirlam 01:00, 07:00, 13:00, 19:00 7.5 km 49h 1h
EWN WRFDA 21:30, 03:30, 09:30, 15:30 12 km 73h 1h
DWD ICON 23:45, 05:45, 11:45, 17:45 7 km 75h 1h
GFS 20:30, 02:30, 08:30, 14:30 25 km 237h 3h
30+ mm
25-30 mm
20-25 mm
15-20 mm
10-15 mm
6-10 mm
4-6 mm
2-4 mm
1-2 mm
0.5-1 mm
0.2-0.5 mm
0.1-0.2 mm
30+ mm
25-30 mm
20-25 mm
15-20 mm
10-15 mm
6-10 mm
4-6 mm
2-4 mm
1-2 mm
0.5-1 mm
0.2-0.5 mm
0.1-0.2 mm
Sneeuwval
Natte sneeuw
Hagel
Vorst
30+ mm
25-30 mm
20-25 mm
15-20 mm
10-15 mm
6-10 mm
4-6 mm
2-4 mm
1-2 mm
0.5-1 mm
0.2-0.5 mm
0.1-0.2 mm
Sneeuwval
Natte sneeuw
Hagel
Vorst
Onweer
50 mm
40 mm
30 mm
26 mm
22 mm
18 mm
14 mm
10 mm
9 mm
8 mm
7 mm
6 mm
5 mm
4.5 mm
4 mm
3.5 mm
3 mm
2.5 mm
2 mm
1.5 mm
1 mm
0.8 mm
0.6 mm
0.4 mm
0.2 mm
0.05 mm
35°
30°
25°
20°
15°
10°
-5°
-10°
-15°
-20°
-25°
-30°
-35°
120> km/h
105 km/h
90 km/h
75 km/h
60 km/h
50 km/h
40 km/h
30 km/h
20 km/h
10 km/h
0 km/h
2600 J/kg
2400 J/kg
2200 J/kg
2000 J/kg
1800 J/kg
1600 J/kg
1400 J/kg
1200 J/kg
1000 J/kg
800 J/kg
600 J/kg
400 J/kg
200 J/kg
70 dBZ
65 dBZ
60 dBZ
55 dBZ
50 dBZ
45 dBZ
40 dBZ
35 dBZ
30 dBZ
25 dBZ
20 dBZ
15 dBZ
10 dBZ
5 dBZ
-1 K
-2 K
-3 K
-4 K
-5 K
-6 K
-7 K
-8 K
-9 K
950 m²/s²
900 m²/s²
850 m²/s²
800 m²/s²
750 m²/s²
700 m²/s²
650 m²/s²
600 m²/s²
550 m²/s²
500 m²/s²
450 m²/s²
400 m²/s²
350 m²/s²
300 m²/s²
250 m²/s²
200 m²/s²
150 m²/s²
100 m²/s²
46 m/s
44 m/s
42 m/s
40 m/s
38 m/s
36 m/s
34 m/s
32 m/s
30 m/s
28 m/s
26 m/s
24 m/s
22 m/s
20 m/s
16 m/s
12 m/s
8 m/s
4 m/s
30 m/s
28 m/s
26 m/s
24 m/s
22 m/s
20 m/s
18 m/s
16 m/s
14 m/s
12 m/s
10 m/s
8 m/s
6 m/s
4 m/s
2 m/s
3.0
2.8
2.6
2.4
2.2
2.0
1.8
1.6
1.4
1.2
1.0
0.8
0.6
0.4
0.2
15
14
13
12
11
10
9
8
7
6
5
4
3
2
1
90%
80%
70%
60%
50%
40%
30%
20%
10%
42
40
38
36
34
32
30
28
26
24
22
20
18
16
14
12
90+ cm
80-90 cm
70-80 cm
60-70 cm
50-60 cm
40-50 cm
30-40 cm
20-30 cm
10-20 cm
1-10 cm
Sneeuwval
Natte sneeuw
Regen
>120 mm
115 mm
110 mm
105 mm
100 mm
95 mm
90 mm
85 mm
80 mm
75 mm
70 mm
65 mm
60 mm
55 mm
50 mm
45 mm
45 mm
40 mm
35 mm
30 mm
25 mm
20 mm
15 mm
10 mm
5 mm
0.1 mm
960 hPa
880 hPa
800 hPa
720 hPa
640 hPa
560 hPa
584 gpdm
568 gpdm
552 gpdm
536 gpdm
520 gpdm
504 gpdm
488 gpdm
Extreem zwaar Noodweer Kans op onweer
15% 15% 5% 50% 15%

Dag




Kaart






35°
30°
25°
20°
15°
10°
-5°
-10°
-15°
-20°
-25°
-30°
-35°
120> km/h
105 km/h
90 km/h
75 km/h
60 km/h
50 km/h
40 km/h
30 km/h
20 km/h
10 km/h
0 km/h
Extreem zwaar Noodweer Kans op onweer
15% 15% 5% 50% 15%
>120 mm
115 mm
110 mm
105 mm
100 mm
95 mm
90 mm
85 mm
80 mm
75 mm
70 mm
65 mm
60 mm
55 mm
50 mm
45 mm
45 mm
40 mm
35 mm
30 mm
25 mm
20 mm
15 mm
10 mm
5 mm
0.1 mm
Onweer risico kaarten - De groene en gele kleur geeft de kans op onweer aan binnen 40 km van een punt. Oranje, rood en violet hebben hetzelfde niveau zoals je het ziet op estofex.org waaronder ook de kans op hagel en supercells.

dBZ - dBZ staat voor decibel ten opzichte van Z.

Cape - Convective available potential energy (CAPE), is de totale hoeveelheid energie die een luchtpakketje nodig heeft om zover mogelijk te stijgen in de atmosfeer.

K Index - K-Index wordt berekend door de Vertical Totals (VT) en het verschil tussen de 850 hPa temperatuur en de 700 hPa dauwpuntsdepressie (Tdd 700) bij elkaar op te tellen.

TT Index - Convectie index wordt gebruikt voor het voorspellen van zware buien of onweer.

WRF - The Weather Research and Forecasting (WRF) is een volgende generatie mesoscale numeriek weersvoorspelling systeem ontworpen om zowel de operationele planning als het atmosferisch onderzoek te dienen. WRF is a cooperatie tussen het National Center for Atmospheric Research (NCAR), National Centers for Environmental Prediction (NCEP), Forecast Systems Laboratory (FSL), Air Force Weather Agency (AFWA), Naval Research Laboratory, University of Oklahoma, en de Federal Aviation Administration (FAA). Deze software draait op onze server.

WRFDA - Een meer geavanceerde versie van WRF

Arome - Het 2.5 km Arome model. Verzorgd door het Noors Meteorologisch Instituut.

MET Norway - De proff-default 4km meteorological data is een beste keus selectie van meteorologische modellen gebruikt door met.no die zijn geïnterpoleerd tot een gemeenschappelijke dataset. Verzorgd door het Noorse Meteorologisch Instituut.

SMHI - Het Hirlam model verzorgd door het Zweeds meteorologisch instituut.

FMI - Het Hirlam model verzorgd door het Fins meteorologisch instituut. Dekking alleen Finland.

GFS - Het Global Forecast Systeem (GFS) is een wereldwijd numerieke weersvoorspelling computermodel, gerund door NOAA.

GEM-GDPS - Het GEM-GDPS is a wereldwijd numeriek weersvoorspelling computermodel verzorgd door het Canadees Meteorologisch Centrum.

Credits/Info: Dank aan Stefan Gofferje van sääkeskus.fi voor enkele formules van GrADS. Info: Wikipedia.

Betrouwbaarheid van de verwachting

NB! 2015-03-29: Rebuilding the accuracy-test!

EWNACC
Day 1 Good forecasts

Dag 1 Tmax

Dag 2 Tmax

Geladen verwachtingen TOP 50

Totaal geladen verwachtingen:
Plaats Latitude Longitude Verwachtingen Plaats Latitude Longitude Verwachtingen